TimeCDT,TemperatureF,Dew PointF,Humidity,Sea Level PressureIn,VisibilityMPH,Wind Direction,Wind SpeedMPH,Gust SpeedMPH,PrecipitationIn,Events,Conditions,WindDirDegrees,DateUTC
12:56 AM,63.0,61.0,93,30.23,7.0,Calm,Calm,-,N/A,,Clear,0,2012-10-13 05:56:00
1:56 AM,62.1,60.1,93,30.23,5.0,Calm,Calm,-,N/A,,Clear,0,2012-10-13 06:56:00
2:56 AM,60.1,59.0,96,30.23,4.0,Calm,Calm,-,N/A,,Clear,0,2012-10-13 07:56:00
3:56 AM,60.1,57.9,93,30.24,4.0,Calm,Calm,-,N/A,,Clear,0,2012-10-13 08:56:00
4:34 AM,60.8,57.2,88,30.21,8.0,Calm,Calm,-,N/A,,Partly Cloudy,0,2012-10-13 09:34:00
4:56 AM,59.0,57.0,93,30.25,7.0,Calm,Calm,-,N/A,,Clear,0,2012-10-13 09:56:00
5:56 AM,59.0,55.9,90,30.26,8.0,Calm,Calm,-,N/A,,Clear,0,2012-10-13 10:56:00
6:51 AM,57.2,55.4,94,30.24,5.0,Calm,Calm,-,N/A,,Scattered Clouds,0,2012-10-13 11:51:00
6:56 AM,57.0,55.9,96,30.27,4.0,Calm,Calm,-,N/A,,Mostly Cloudy,0,2012-10-13 11:56:00
7:21 AM,57.2,55.4,94,30.25,4.0,Calm,Calm,-,N/A,,Overcast,0,2012-10-13 12:21:00
7:47 AM,59.0,57.2,94,30.25,1.0,Calm,Calm,-,N/A,,Mist,0,2012-10-13 12:47:00
7:54 AM,60.8,57.2,88,30.25,0.8,Calm,Calm,-,N/A,,Mist,0,2012-10-13 12:54:00
7:56 AM,60.1,57.9,93,30.28,1.0,Calm,Calm,-,N/A,,Mist,0,2012-10-13 12:56:00
7:59 AM,60.8,59.0,94,30.25,2.0,Calm,Calm,-,N/A,,Partly Cloudy,0,2012-10-13 12:59:00
8:07 AM,60.8,60.8,100,30.25,3.0,Calm,Calm,-,N/A,,Clear,0,2012-10-13 13:07:00
8:56 AM,68.0,63.0,84,30.29,7.0,SE,5.8,-,N/A,,Clear,140,2012-10-13 13:56:00
9:56 AM,73.0,63.0,71,30.30,10.0,SE,10.4,16.1,N/A,,Clear,130,2012-10-13 14:56:00
10:56 AM,77.0,63.0,62,30.28,10.0,SSE,9.2,17.3,N/A,,Clear,160,2012-10-13 15:56:00
11:56 AM,80.1,64.0,58,30.26,10.0,SE,8.1,-,N/A,,Clear,140,2012-10-13 16:56:00
12:56 PM,82.0,64.0,54,30.22,10.0,ESE,8.1,-,N/A,,Clear,120,2012-10-13 17:56:00
1:56 PM,82.9,64.0,53,30.18,10.0,SE,10.4,-,N/A,,Mostly Cloudy,130,2012-10-13 18:56:00
2:56 PM,82.0,64.9,56,30.17,10.0,SSE,4.6,-,N/A,,Scattered Clouds,160,2012-10-13 19:56:00
3:56 PM,82.0,64.0,54,30.15,10.0,SSE,8.1,-,N/A,,Clear,150,2012-10-13 20:56:00
4:56 PM,81.0,64.9,58,30.14,10.0,SSE,4.6,-,N/A,,Partly Cloudy,150,2012-10-13 21:56:00
5:56 PM,78.1,64.9,64,30.14,10.0,SE,4.6,-,N/A,,Clear,140,2012-10-13 22:56:00
6:45 PM,73.4,66.2,78,30.12,10.0,SE,4.6,-,N/A,,Scattered Clouds,140,2012-10-13 23:45:00
6:56 PM,73.9,66.0,76,30.15,10.0,SE,3.5,-,N/A,,Scattered Clouds,140,2012-10-13 23:56:00
7:56 PM,72.0,66.0,81,30.16,10.0,SE,4.6,-,N/A,,Partly Cloudy,140,2012-10-14 00:56:00
8:56 PM,71.1,66.0,84,30.16,10.0,SSE,4.6,-,N/A,,Partly Cloudy,150,2012-10-14 01:56:00
9:56 PM,70.0,66.0,87,30.16,10.0,South,3.5,-,N/A,,Clear,170,2012-10-14 02:56:00
10:56 PM,71.1,64.9,81,30.16,10.0,South,4.6,-,N/A,,Clear,170,2012-10-14 03:56:00
11:56 PM,70.0,64.9,84,30.15,10.0,South,3.5,-,N/A,,Clear,170,2012-10-14 04:56:00